Hourly Weather Roundup
Issued by NWS Central Illinois

Home | Current Version | Previous Version | Text Only | Print | Product List | Glossary On
Versions: 1 2 3 4 5 6 7 8 9 10 11 12 13 14 15 16 17 18 19 20 21 22 23 24 25 26 27 28 29 30 31 32 33 34 35 36 37 38 39 40 41 42 43 44 45 46 47 48 49 50
000
NZUS43 KILX 292210
HWRILX

AREA WEATHER ROUNDUP
NATIONAL WEATHER SERVICE, LINCOLN IL
500 PM CDT SUN MAR 29 2015


CITY           SKY/WX    TMP DP  RH WIND       PRES   REMARKS
BLOOMINGTON    PTSUNNY   52  37  56 SW22G28   29.88F
CHAMPAIGN      CLOUDY    47  40  76 SW13      29.91F
DECATUR        CLOUDY    53  39  59 SW22G30   29.92F
EFFINGHAM      RAIN      51  34  52 S8        29.94F
FLORA          CLOUDY    55  40  57 SW20      29.97S
GALESBURG      CLOUDY    54  41  62 SW13G21   29.83F
JACKSONVILLE   PTSUNNY   58  39  49 SW17G24   29.91S
LACON          PTSUNNY   53  35  50 SW17G23   29.82F
LAWRENCEVILLE  CLOUDY    56  31  38 SW16G24   29.98R
LITCHFIELD     CLOUDY    52  41  65 SW10      29.93S
$$


CITY           SKY/WX    TMP DP  RH WIND       PRES   REMARKS
LINCOLN        PTSUNNY   56  37  47 W12G18    29.89S
MACOMB         CLOUDY    56  41  58 SW18G25   29.88F
MATTOON        CLOUDY    49  37  63 SW13      29.93F
MT CARMEL AP   CLOUDY    59  32  36 SW14      29.98R
OLNEY-NOBLE AP LGT RAIN  54  37  54 SW5       29.98R
PARIS          LGT RAIN  44  38  80 SW9       29.94F
PEORIA         PTSUNNY   57  37  47 SW18G24   29.86F
PONTIAC        PTSUNNY   50  37  59 SW17G29   29.86F
RANTOUL        CLOUDY    51  38  62 SW17G24   29.90F
ROBINSON       LGT RAIN  53  35  50 SW16G22   29.99R
SPRINGFIELD    PTSUNNY   56  36  47 SW16G26   29.91S
TAYLORVILLE    PTSUNNY   52  41  66 SW14      29.92F
$$

...REGIONAL REPORTS...


CITY           SKY/WX    TMP DP  RH WIND       PRES   REMARKS
CHICAGO O`HARE MOSUNNY   45  33  63 SW18G30   29.76F
KANKAKEE       MOSUNNY   46  37  71 SW18G26   29.86F
MOLINE         CLOUDY    55  40  56 SW18      29.79S
MOUNT VERNON   CLOUDY    55  39  54 SW16      30.00R
PITTSFIELD     PTSUNNY   57  39  51 W16       29.93F
QUINCY         PTSUNNY   58  39  49 W12G24    29.90F
ROCKFORD       CLOUDY    47  38  71 SW16      29.75F
$$


CITY           SKY/WX    TMP DP  RH WIND       PRES   REMARKS
BURLINGTON     CLOUDY    57  42  57 W12       29.85S
CEDAR RAPIDS   MOSUNNY   57  39  51 NW29G39   29.83R
DES MOINES     MOSUNNY   63  27  25 N24G37    29.93R
KIRKSVILLE     LGT RAIN  62  40  44 NW23G33   29.92R
OTTUMWA        MOSUNNY   59  39  47 NW21G29   29.89R
ST LOUIS       CLOUDY    57  44  62 W12       29.95F
$$


CITY           SKY/WX    TMP DP  RH WIND       PRES   REMARKS
TERRE HAUTE    LGT RAIN  48  32  53 SW9       29.98R
EVANSVILLE     MOSUNNY   61  36  39 SW20G25   29.97F
INDIANAPOLIS   LGT RAIN  49  23  36 SW13      29.94S
LAFAYETTE      CLOUDY    42  32  67 SW8       29.92R
MADISON        CLOUDY    45  38  76 W10G23    29.68R
MILWAUKEE      PTSUNNY   41  31  67 SW24G35   29.67F WCI  31
$$




USA.gov is the U.S. government's official web portal to all federal, state and local government web resources and services.